Tracking 17149 objects as of 22-May-2015
HD Live streaming from Space Station

SL-6 R/B(1)


SL-6 R/B(1) is no longer on orbit
SL-6 R/B(1) is classified as:


NORAD ID: 16850
Int'l Code: 1986-050B
Perigee: N/A
Apogee: N/A
Inclination: N/A
Period: N/A
Semi major axis: N/A
RCS: N/A
Launch date: July 5, 1986
Source: Commonwealth of Independent States (former USSR) (CIS)
Decay date: 1986-09-19

Note: This is a ROCKET BODY
Your satellite tracking list
Your tracking list is empty





NASA's NSSDC Master Catalog

Two Line Element Set (TLE):
1 16850U 86050B   86262.35504474  .25193948 +40196-4 +25158-3 0  9994
2 16850 062.8099 320.2803 0011484 120.9070 239.8596 16.50289750012076

Source of the keplerian elements: AFSPC

N2YO: 384